Howell, MI

10:47 AM EDT on October 21, 2017 (GMT -0400)
Livingston County

Weather History for KOZW - October, 2012

Change the Weather History Date:

Friday, October 5, 2012

  Actual Average Record
Temperature  
Mean Temperature 53 °F -  
Max Temperature 61 °F 64 °F 87 °F (2007)
Min Temperature 45 °F 43 °F 28 °F (2004)
Degree Days  
Heating Degree Days 12    
Growing Degree Days 3 (Base 50)    
Moisture  
Dew Point 44 °F    
Average Humidity 75    
Maximum Humidity 89    
Minimum Humidity 46    
Precipitation  
Precipitation 0.00 in - - ()
Sea Level Pressure  
Sea Level Pressure 30.02 in    
Wind  
Wind Speed 9 mph (WSW)    
Max Wind Speed 18 mph    
Max Gust Speed 25 mph    
Visibility 10 miles    
Events Rain    
Averages and records for this station are not official NWS values.
T = Trace of Precipitation, MM = Missing Value Source: NWS Daily Summary

Daily Weather History Graph

Daily Weather History Graph

Search for Another Location

Airport or City:

Trip Planner

Search our weather history database for the weather conditions in past years. The results will help you decide how hot, cold, wet, or windy it might be!

Date:

Astronomy

Oct. 05, 2012 Rise Set
Actual Time 7:38 AM EDT 7:09 PM EDT
Civil Twilight 7:09 AM EDT 7:37 PM EDT
Nautical Twilight 6:37 AM EDT 8:10 PM EDT
Astronomical Twilight 6:04 AM EDT 8:43 PM EDT
Moon 10:26 PM EDT (10/5) 12:51 PM EDT (10/5)
Length of Visible Light 12h 27m
Length of Day
11h 31m
Waning Gibbous, 74% of the Moon is Illuminated
Oct 5
Waning Gibbous
Oct 8
Last Quarter
Oct 15
New
Oct 21
First Quarter
Oct 29
Full

Hourly Weather History & Observations

Time (EDT) Temp. Windchill Dew Point Humidity Pressure Visibility Wind Dir Wind Speed Gust Speed Precip Events Conditions
12:15 AM 61.9 °F - 58.1 °F 87% 30.00 in 5.0 mi WSW 8.1 mph - N/A Rain Heavy Rain
12:35 AM 61.5 °F - 58.1 °F 89% 30.02 in 7.0 mi SW 6.9 mph - N/A Rain Light Rain
12:54 AM 61.2 °F - 57.9 °F 89% 30.02 in 10.0 mi SW 10.4 mph - N/A   Overcast
1:15 AM 60.6 °F - 56.7 °F 87% 30.02 in 5.0 mi WSW 9.2 mph 19.6 mph N/A Rain Light Rain
1:35 AM 59.5 °F - 55.2 °F 86% 30.03 in 10.0 mi West 18.4 mph 25.3 mph N/A   Overcast
1:54 AM 57.9 °F - 52.0 °F 81% 30.03 in 10.0 mi West 10.4 mph 17.3 mph N/A   Overcast
2:15 AM 57.4 °F - 52.0 °F 82% 30.03 in 10.0 mi West 6.9 mph - N/A Rain Light Rain
2:35 AM 57.2 °F - 52.0 °F 83% 30.03 in 10.0 mi West 9.2 mph - N/A Rain Rain
2:54 AM 56.5 °F - 51.3 °F 83% 30.03 in 10.0 mi WSW 9.2 mph - N/A Rain Light Rain
3:15 AM 56.3 °F - 51.8 °F 85% 30.03 in 10.0 mi WSW 10.4 mph - N/A   Overcast
3:35 AM 55.8 °F - 51.3 °F 85% 30.02 in 10.0 mi WSW 6.9 mph - N/A Rain Light Rain
3:55 AM 55.6 °F - 51.3 °F 85% 30.02 in 10.0 mi WSW 10.4 mph - N/A   Overcast
4:15 AM 55.4 °F - 50.4 °F 83% 30.02 in 10.0 mi WSW 9.2 mph - N/A   Overcast
4:34 AM 54.9 °F - 49.1 °F 81% 30.03 in 10.0 mi WSW 6.9 mph - N/A   Overcast
4:55 AM 54.7 °F - 49.6 °F 83% 30.04 in 10.0 mi WSW 9.2 mph - N/A   Overcast
5:15 AM 54.7 °F - 48.9 °F 81% 30.05 in 10.0 mi West 10.4 mph - N/A   Overcast
5:35 AM 53.8 °F - 48.0 °F 81% 30.05 in 10.0 mi West 9.2 mph - N/A   Scattered Clouds
5:55 AM 53.2 °F - 47.5 °F 81% 30.05 in 10.0 mi West 8.1 mph - N/A   Clear
6:14 AM 53.1 °F - 47.1 °F 80% 30.04 in 10.0 mi West 9.2 mph - N/A   Clear
6:35 AM 52.5 °F - 46.0 °F 79% 30.05 in 10.0 mi West 8.1 mph - N/A   Clear
6:55 AM 51.8 °F - 45.1 °F 78% 30.04 in 10.0 mi West 9.2 mph - N/A   Clear
7:15 AM 51.4 °F - 44.6 °F 77% 30.05 in 10.0 mi West 6.9 mph - N/A   Clear
7:35 AM 50.9 °F - 44.1 °F 77% 30.05 in 10.0 mi West 8.1 mph - N/A   Clear
7:54 AM 50.7 °F - 42.4 °F 73% 30.06 in 10.0 mi West 8.1 mph - N/A   Clear
8:15 AM 50.4 °F - 42.3 °F 74% 30.06 in 10.0 mi West 8.1 mph - N/A   Clear
8:35 AM 50.2 °F - 42.4 °F 75% 30.06 in 10.0 mi West 9.2 mph - N/A   Clear
8:54 AM 50.2 °F - 41.4 °F 72% 30.06 in 10.0 mi West 8.1 mph - N/A   Clear
9:15 AM 50.7 °F - 42.1 °F 72% 30.07 in 10.0 mi WSW 6.9 mph - N/A   Clear
9:34 AM 50.9 °F - 42.1 °F 72% 30.07 in 10.0 mi West 6.9 mph - N/A   Clear
9:55 AM 50.9 °F - 41.5 °F 70% 30.07 in 10.0 mi West 10.4 mph - N/A   Clear
10:14 AM 51.1 °F - 41.0 °F 68% 30.07 in 10.0 mi West 11.5 mph 16.1 mph N/A   Clear
10:35 AM 50.9 °F - 40.3 °F 67% 30.07 in 10.0 mi West 10.4 mph 16.1 mph N/A   Scattered Clouds
10:54 AM 51.1 °F - 40.1 °F 66% 30.06 in 10.0 mi West 11.5 mph - N/A   Scattered Clouds
11:15 AM 51.3 °F - 40.1 °F 66% 30.06 in 10.0 mi West 10.4 mph - N/A   Mostly Cloudy
11:35 AM 52.3 °F - 40.6 °F 64% 30.06 in 10.0 mi West 10.4 mph - N/A   Mostly Cloudy
11:54 AM 52.7 °F - 40.6 °F 64% 30.05 in 10.0 mi WSW 13.8 mph - N/A   Mostly Cloudy
12:35 PM 53.8 °F - 40.3 °F 60% 30.05 in 10.0 mi West 10.4 mph - N/A   Scattered Clouds
12:54 PM 54.7 °F - 40.3 °F 58% 30.04 in 10.0 mi SW 9.2 mph - N/A   Clear
1:15 PM 55.2 °F - 39.9 °F 56% 30.03 in 10.0 mi WSW 8.1 mph - N/A   Clear
1:35 PM 55.6 °F - 38.1 °F 52% 30.04 in 10.0 mi WSW 11.5 mph - N/A   Clear
1:54 PM 55.4 °F - 37.8 °F 52% 30.03 in 10.0 mi WSW 11.5 mph 17.3 mph N/A   Scattered Clouds
2:35 PM 56.8 °F - 37.4 °F 48% 30.02 in 10.0 mi WSW 12.7 mph 17.3 mph N/A   Mostly Cloudy
2:54 PM 57.4 °F - 36.9 °F 46% 30.01 in 10.0 mi West 13.8 mph 17.3 mph N/A   Mostly Cloudy
3:15 PM 55.8 °F - 36.5 °F 48% 30.00 in 10.0 mi WSW 11.5 mph - N/A   Mostly Cloudy
3:35 PM 55.0 °F - 36.1 °F 49% 30.00 in 10.0 mi WSW 9.2 mph - N/A   Overcast
3:55 PM 54.7 °F - 36.0 °F 49% 30.00 in 10.0 mi WSW 11.5 mph 18.4 mph N/A   Overcast
4:15 PM 52.9 °F - 39.9 °F 61% 29.98 in 10.0 mi WSW 9.2 mph - N/A Rain Light Rain
4:34 PM 52.3 °F - 40.3 °F 64% 29.98 in 10.0 mi WSW 9.2 mph - N/A Rain Light Rain
4:55 PM 52.0 °F - 39.2 °F 62% 29.98 in 10.0 mi WSW 9.2 mph - N/A   Overcast
5:15 PM 50.7 °F - 38.7 °F 63% 29.98 in 10.0 mi SW 10.4 mph - N/A Rain Light Rain
5:35 PM 49.3 °F - 39.0 °F 68% 29.98 in 10.0 mi WSW 8.1 mph - N/A Rain Light Rain
5:55 PM 48.2 °F - 40.6 °F 75% 29.99 in 7.0 mi WSW 6.9 mph - N/A Rain Light Rain
6:14 PM 47.7 °F - 41.9 °F 80% 30.00 in 10.0 mi SW 5.8 mph - N/A Rain Light Rain
6:35 PM 47.3 °F - 41.0 °F 79% 29.99 in 10.0 mi WSW 9.2 mph - N/A Rain Light Rain
7:15 PM 46.9 °F - 41.9 °F 83% 29.99 in 10.0 mi WSW 8.1 mph - N/A   Overcast
7:35 PM 46.8 °F - 42.4 °F 85% 29.99 in 10.0 mi WSW 6.9 mph - N/A Rain Light Rain
7:54 PM 46.6 °F - 42.4 °F 85% 29.98 in 10.0 mi SSW 4.6 mph - N/A   Overcast
8:15 PM 46.6 °F - 42.8 °F 87% 29.99 in 10.0 mi WSW 5.8 mph - N/A   Overcast
8:35 PM 46.6 °F - 42.3 °F 85% 30.00 in 10.0 mi WSW 9.2 mph - N/A   Overcast
8:54 PM 46.2 °F 41.7 °F 42.1 °F 85% 29.99 in 10.0 mi WSW 9.2 mph - N/A   Overcast
9:15 PM 46.0 °F 43.1 °F 42.1 °F 86% 29.98 in 10.0 mi SW 5.8 mph - N/A Rain Light Rain
9:34 PM 45.9 °F 42.3 °F 41.9 °F 86% 29.97 in 10.0 mi WSW 6.9 mph - N/A Rain Light Rain
9:55 PM 45.7 °F 41.5 °F 41.9 °F 87% 29.98 in 10.0 mi WSW 8.1 mph - N/A Rain Light Rain
10:15 PM 45.5 °F 43.2 °F 41.7 °F 87% 29.97 in 10.0 mi SW 4.6 mph - N/A   Light Drizzle
10:34 PM 45.5 °F 42.5 °F 41.5 °F 86% 29.96 in 10.0 mi SW 5.8 mph - N/A   Overcast
10:55 PM 45.1 °F 41.4 °F 41.4 °F 87% 29.96 in 10.0 mi SW 6.9 mph - N/A   Overcast
11:34 PM 45.0 °F 41.2 °F 41.2 °F 87% 29.95 in 10.0 mi SW 6.9 mph - N/A   Overcast
11:55 PM 45.0 °F 41.8 °F 41.2 °F 87% 29.96 in 10.0 mi SW 5.8 mph - N/A   Overcast